Location: Charny
(48.9710°N, 2.7612°E)
Time: 03:18:24
(UTC+00:00)

Daily predictions for brighter satellites

Satellite Brightness Start Highest point End
(mag) Time Altitude Azimuth Time Altitude Azimuth Time Altitude Azimuth
CENTAUR R/B 4.1 03:11:58 31° NE 03:11:58 31° NE 03:15:33 10° NE
NOSS 3-2 (C) 4.5 03:51:07 39° NNE 03:51:07 39° NNE 03:55:18 10° NE
Cosmos 2369 Rocket 3.7 03:51:56 30° NE 03:51:56 30° NE 03:54:45 10° NNE
Cosmos 1943 Rocket 4.2 03:59:15 19° NNE 03:59:15 19° NNE 04:00:49 10° NNE
CZ-2C R/B 4.1 03:53:35 10° SE 03:58:20 33° ENE 04:00:25 25° NNE
Cosmos 2344 3.8 04:05:25 54° NNW 04:05:25 54° NNW 04:12:34 10° NE
Cosmos 2279 Rocket 4.3 04:06:26 40° NNE 04:08:36 61° ENE 04:14:43 10° SSE
USA 238 DEB 4.1 04:17:53 48° N 04:17:53 48° N 04:23:32 10° NE
USA 238 4.1 04:17:58 48° N 04:17:58 48° N 04:23:38 10° NE
Gblst 52 Del rocket 4.5 04:18:08 68° NNE 04:18:08 68° NNE 04:24:24 10° E
SJ 16-02 3.6 04:15:06 10° SSE 04:18:33 23° E 04:22:00 10° NE
USA 215 3.5 04:13:15 10° E 04:19:36 56° NNE 04:20:33 51° NNW
Cosmos 2227 Rocket 4.4 04:17:14 13° N 04:19:52 18° NE 04:23:36 10° ENE
Lacrosse 4 Rocket 4.2 04:23:22 12° NNE 04:23:57 12° NNE 04:25:38 10° NE
Cosmos 2098 Rocket 4.4 04:28:03 40° NNE 04:28:03 40° NNE 04:31:53 10° N
ATLAS 5 CENTAUR R/B 2.5 04:41:25 38° SE 04:41:50 40° ESE 04:45:51 10° NE
COSMOS 2487 4.0 04:47:50 32° E 04:47:50 32° E 04:50:19 10° SE
SKYMED 2 3.7 04:44:04 10° SSE 04:48:24 73° ENE 04:48:34 71° NE
Cosmos 2278 Rocket 4.5 04:51:17 10° N 04:51:17 10° N 04:51:22 10° N
Cosmos 1354 Rocket 3.9 04:53:50 45° SSW 04:55:30 83° WNW 05:00:52 10° NNE
H-2A R/B 4.2 04:52:48 10° ESE 04:56:18 24° ENE 04:59:53 10° N
CENTAUR R/B 3.4 04:59:09 34° NW 04:59:56 35° NNW 05:06:50 10° NE
CZ-4C R/B 3.5 05:04:07 10° SSE 05:06:54 51° E 05:06:54 51° E
Cosmos 2180 Rocket 4.3 05:02:07 13° NNW 05:07:40 67° W 05:13:43 10° S
SL-19 R/B 4.3 05:02:28 10° S 05:07:56 57° WSW 05:09:39 41° NW
FALCON 9 DEB 4.1 05:14:22 35° ENE 05:14:22 35° ENE 05:16:21 10° E
FALCON 9 DEB 4.0 05:16:00 36° ENE 05:16:00 36° ENE 05:18:02 10° E
FALCON 9 DEB 4.0 05:17:27 35° NE 05:17:27 35° NE 05:19:35 10° E
Cosmos 1538 Rocket 3.9 05:16:45 25° NNW 05:19:53 88° ENE 05:25:04 10° SSE
Cosmos 1656 Rocket 4.1 05:20:45 37° NW 05:20:46 37° NW 05:25:51 10° NNE
MOS 1-B Rocket 4.1 05:15:41 10° S 05:21:21 43° W 05:23:07 34° WNW
Alouette 2 Rocket 3.4 05:20:03 28° N 05:21:50 68° ENE 05:25:29 10° SSE
Meteor 1-27 Rocket 3.6 05:16:41 12° NNW 05:22:05 76° W 05:27:51 10° S
ADEOS 3.9 05:21:29 10° NNE 05:26:43 68° ESE 05:31:54 10° S
Cosmos 2297 Rocket 2.9 05:23:49 14° NNW 05:28:35 52° NE 05:34:06 10° SE
Cosmos 1607 3.9 05:26:35 25° NW 05:30:27 88° SW 05:36:36 10° SE
Meteor 2-15 Rocket 4.4 05:25:16 10° NNW 05:31:16 64° W 05:37:15 10° S
ATLAS 3B R/B 2.7 05:26:03 10° SSW 05:32:35 80° SE 05:39:29 10° NE
FALCON 9 DEB 3.7 05:32:32 41° NNW 05:32:56 43° N 05:36:11 10° E
Cosmos 2369 Rocket 3.2 05:33:45 26° NW 05:33:45 26° NW 05:38:24 10° NNE
Landsat 5 3.7 05:30:09 10° S 05:34:32 53° W 05:36:39 28° NW
H-2A R/B 4.5 05:30:59 10° N 05:39:24 - SSW 05:32:10 19° N
Cosmos 1340 Rocket 2.6 05:31:46 10° SSW 05:35:45 81° WNW 05:39:48 10° N
COSMO-SKYMED 1 3.0 05:32:30 10° SSW 05:36:33 38° W 05:37:10 36° WNW
Cosmos 1777 Rocket 3.9 05:31:38 10° SSW 05:36:50 67° WNW 05:42:06 10° NNE
CZ-2C R/B 3.0 05:33:24 10° SSW 05:38:32 42° W 05:41:55 20° NW
CZ-4B R/B 3.6 05:35:51 10° ESE 05:38:32 24° ENE 05:41:11 10° NNE
Cosmos 1680 Rocket 4.4 05:34:03 10° NNW 05:39:11 48° ENE 05:44:16 10° SE
Cosmos 158 Rocket 3.9 05:36:52 21° NNW 05:40:17 66° WSW 05:45:30 10° S
Cosmos 1943 Rocket 3.9 05:40:47 15° NNW 05:40:47 15° NNW 05:43:33 10° N
NOSS 3-2 (C) 4.5 05:38:34 24° NW 05:40:43 29° NNW 05:46:46 10° NE
SJ-12 4.3 05:36:52 10° N 05:40:45 40° WNW 05:44:37 10° SW
Cosmos 1408 Rocket 3.8 05:38:18 10° SSW 05:42:23 42° WNW 05:46:31 10° N
CZ-4B R/B 3.3 05:39:36 10° NNE 05:43:08 54° E 05:46:42 10° S
FALCON 9 DEB 3.0 05:44:13 46° NNW 05:44:40 53° NNE 05:47:30 10° E
Cosmos 2263 Rocket 4.4 05:41:28 10° N 05:45:09 17° NE 05:48:49 10° ENE
H-2A R/B 4.5 05:42:25 10° NE 05:46:19 23° E 05:50:12 10° SE
Meteor 1-25 Rocket 4.3 05:40:47 10° S 05:46:22 77° E 05:51:57 10° NNE
FAST Rocket 4.2 05:45:07 10° SSW 05:47:52 74° W 05:51:46 10° N
Meteor 1-31 Rocket 3.1 05:45:42 10° N 05:49:24 41° WNW 05:53:06 10° SW
Lacrosse 5 4.0 05:45:10 10° S 05:49:29 29° SE 05:53:50 10° ENE
USA 32 3.9 05:45:09 10° N 05:50:25 78° W 05:55:39 10° S
Envisat 3.3 05:46:22 10° N 05:51:06 40° WNW 05:55:50 10° SW
Cosmos 1743 Rocket 3.5 05:50:19 10° SSW 05:54:37 57° WNW 05:58:55 10° N
Cosmos 923 Rocket 4.1 05:49:29 10° NNW 05:54:53 80° ENE 06:00:14 10° SSE
Cosmos 1174 3.7 05:55:46 34° WNW 05:56:14 36° NW 05:59:19 10° NNE
OPS 6432 4.3 05:55:13 34° WNW 05:56:17 58° SW 05:59:41 10° SSE
SJ 16-02 1.6 05:52:42 10° SW 05:56:52 42° WNW 06:01:03 10° N
CZ-2C R/B 3.0 05:52:03 10° NNE 05:57:01 88° E 06:02:13 10° SSW
USA 215 3.3 05:56:00 10° SE 06:02:32 72° SW 06:07:53 16° WNW
Lacrosse 4 Rocket 2.5 05:59:39 11° NNW 06:03:47 43° NE 06:08:04 10° ESE
SL-4 R/B 2.7 06:00:42 10° SW 06:04:05 46° SSE 06:07:43 10° ENE
Cosmos 2227 Rocket 2.5 05:59:21 10° NNW 06:05:01 69° ENE 06:10:39 10° SE
Nadezhda 4 Rocket 4.2 05:59:20 10° SSW 06:05:16 47° WNW 06:11:20 10° N
Cosmos 1666 Rocket 4.4 06:01:24 10° S 06:05:46 54° E 06:10:09 10° NNE
Cosmos 1939 Rocket 2.9 06:03:33 10° NNE 06:07:29 78° ESE 06:11:20 10° S
IRAS Rocket 4.3 06:03:29 10° S 06:08:51 54° WSW 06:14:14 10° NNW
Cosmos 2228 Rocket 3.3 06:05:59 10° NNW 06:10:21 49° W 06:14:43 10° SSW
Okean 1 3.2 06:07:44 10° NNW 06:11:41 64° W 06:15:34 10° S
Meteor 2-4 Rocket 4.1 06:07:28 10° N 06:13:25 73° ENE 06:19:13 10° SSE
FengYun 1-2 T 4.3 06:09:39 10° NNE 06:15:11 82° ESE 06:20:41 10° SSW
Meteor PRIRODA 3.7 06:13:39 10° N 06:17:11 50° WNW 06:20:42 10° SSW
Cosmos 1602 4.0 06:15:36 10° SSW 06:19:13 43° WNW 06:22:54 10° N
Sich 1 3.0 06:15:37 10° SSW 06:19:50 62° WNW 06:24:05 10° N
Meteor 1-18 Rocket 4.2 06:14:18 10° NNW 06:20:10 77° W 06:25:51 10° S
Cosmos 1428 Rocket 4.4 06:14:04 10° SSW 06:20:10 67° WNW 06:26:16 10° N
NOAA 11 4.4 06:15:52 10° N 06:21:08 50° WNW 06:26:25 10° SW
Cosmos 1500 Rocket 4.3 06:17:23 10° SW 06:21:22 31° WNW 06:25:23 10° N
COSMOS 2487 4.0 06:20:58 15° W 06:21:33 16° W 06:23:42 10° SW
DMSP B5D2-2 4.5 06:16:47 10° SSW 06:21:42 42° W 06:26:38 10° NNW
Cosmos 2112 Rocket 4.1 06:17:38 10° NNW 06:23:00 88° ENE 06:28:16 10° SSE
BREEZE M DEB (TANK) 2.2 06:21:00 16° W 06:23:07 53° SSW 06:25:07 10° ESE
Cosmos 990 Rocket 4.0 06:18:36 10° SSW 06:23:51 88° ESE 06:29:07 10° NNE
Meteor 1-20 Rocket 4.4 06:20:21 10° SSW 06:25:48 50° WNW 06:31:25 10° N
Meteor 2-21 4.4 06:19:41 10° SSW 06:25:50 73° W 06:32:00 10° N
Cosmos 1092 Rocket 4.1 06:20:05 10° SSW 06:26:13 55° WNW 06:32:27 10° N
ATLAS 5 CENTAUR R/B 2.2 06:22:59 11° W 06:26:29 33° NNW 06:30:39 10° NNE
Cosmos 1500 3.2 06:22:56 10° SSW 06:26:40 54° WNW 06:30:24 10° N
PSLV R/B 3.9 06:26:57 10° SSE 06:31:01 89° E 06:35:10 10° NNW
H-2A R/B 2.5 06:27:53 10° S 06:32:01 43° W 06:36:16 10° NNW
Cosmos 1707 Rocket 3.7 06:28:34 10° NNW 06:32:57 57° W 06:37:19 10° S
Geosat FO 4.5 06:30:05 10° SSE 06:33:21 63° WSW 06:36:42 10° NW
Cosmos 1805 Rocket 4.1 06:29:58 10° SW 06:34:00 36° WNW 06:38:04 10° N
Cosmos 1697 Rocket 3.8 06:30:04 10° S 06:35:28 51° ESE 06:40:54 10° NE
Cosmos 44 4.2 06:36:04 10° SSW 06:41:21 61° ESE 06:46:28 10° NE
Cosmos 1980 Rocket 4.4 06:37:12 10° SSE 06:42:08 31° ESE 06:47:05 10° NE
PSLV R/B 3.9 06:39:48 10° NNE 06:43:48 87° WNW 06:47:51 10° SSW
Cosmos 2219 3.3 06:38:37 10° NNW 06:44:14 66° WSW 06:49:51 10° SSE
Cosmos 1862 Rocket 3.5 06:42:14 10° NNW 06:46:33 69° W 06:50:52 10° S
FALCON 9 DEB 3.7 06:45:51 10° WNW 06:48:29 34° SW 06:51:06 10° SSE
FALCON 9 DEB 3.6 06:47:35 10° WNW 06:50:15 37° SW 06:52:54 10° SE
CZ-4B R/B 4.1 06:46:02 10° NNE 06:51:15 54° ESE 06:56:28 10° S
FALCON 9 DEB 3.2 06:49:08 10° WNW 06:51:57 49° SSW 06:54:44 10° SE
CENTAUR R/B 4.1 06:46:55 10° NW 06:52:52 27° N 06:59:39 10° ENE
Cosmos 2266 Rocket 4.4 06:47:23 10° S 06:53:28 70° E 06:59:44 10° NNE
AQUARIUS 4.3 06:50:14 10° N 06:54:39 54° WNW 06:59:01 10° SSW
Cosmos 1666 2.9 06:51:41 10° SSW 06:55:19 46° WNW 06:58:58 10° N
